Location: Dannhausen
(51.8650°N, 10.1026°E)
Time: 01:03:42
(UTC+00:00)

Cosmos 2233 Rocket - Pass Details

Date: 15 August 2020
Orbit: 952 x 992 km, 82.9° (Epoch: 26 September)

Event Time Altitude Azimuth Distance (km) Brightness Sun altitude
Exits shadow 20:49:29 22° 118° (ESE) 2,018 5.1 -16.4°
Maximum altitude 20:51:56 28° 83° (E) 1,756 5.1 -16.7°
Drops below altitude 10° 20:57:12 10° 27° (NNE) 2,764 6.7 -17.2°
Sets 21:00:03 0° 17° (NNE) 3,714 7.6 -17.4°
